Time,TemperatureF,DewpointF,PressureIn,WindDirection,WindDirectionDegrees,WindSpeedMPH,WindSpeedGustMPH,Humidity,HourlyPrecipIn,Conditions,Clouds,dailyrainin,SoftwareType,DateUTC
2013-03-29 00:03:00,69.1,15.1,30.09,WNW,293,4.7,5.1,13,0.00,,,0.00,WUHU216HW,2013-03-29 07:03:00,
2013-03-29 00:08:00,69.1,15.1,30.09,WNW,293,4.7,5.1,13,0.00,,,0.00,WUHU216HW,2013-03-29 07:08:00,
2013-03-29 00:29:00,68.0,17.6,30.08,NW,315,2.9,2.9,15,0.00,,,0.00,WUHU216HW,2013-03-29 07:29:00,
2013-03-29 00:34:00,68.0,17.6,30.08,WNW,293,1.3,2.9,15,0.00,,,0.00,WUHU216HW,2013-03-29 07:34:00,
2013-03-29 00:39:00,68.0,17.6,30.08,WNW,293,1.3,2.9,15,0.00,,,0.00,WUHU216HW,2013-03-29 07:39:00,
2013-03-29 00:59:00,66.6,17.9,30.08,NNW,338,2.5,2.5,16,0.00,,,0.00,WUHU216HW,2013-03-29 07:59:00,
2013-03-29 01:04:00,66.6,17.9,30.08,NW,315,1.8,2.5,16,0.00,,,0.00,WUHU216HW,2013-03-29 08:04:00,
2013-03-29 01:09:00,66.6,17.9,30.08,NW,315,1.8,1.8,16,0.00,,,0.00,WUHU216HW,2013-03-29 08:09:00,
2013-03-29 01:30:00,66.1,19.1,30.08,North,0,2.0,2.0,17,0.00,,,0.00,WUHU216HW,2013-03-29 08:30:00,
2013-03-29 01:35:00,66.1,19.1,30.08,North,0,1.3,2.5,17,0.00,,,0.00,WUHU216HW,2013-03-29 08:35:00,
2013-03-29 01:40:00,66.1,19.1,30.08,North,0,2.2,2.5,17,0.00,,,0.00,WUHU216HW,2013-03-29 08:40:00,
2013-03-29 01:45:00,66.1,19.1,30.08,North,0,2.0,2.2,17,0.00,,,0.00,WUHU216HW,2013-03-29 08:45:00,
2013-03-29 01:50:00,65.9,18.9,30.08,NE,45,1.1,2.2,17,0.00,,,0.00,WUHU216HW,2013-03-29 08:50:00,
2013-03-29 01:55:00,65.3,18.5,30.08,ESE,113,0.9,2.2,17,0.00,,,0.00,WUHU216HW,2013-03-29 08:55:00,
2013-03-29 02:00:00,64.8,19.6,30.08,East,90,2.5,3.4,18,0.00,,,0.00,WUHU216HW,2013-03-29 09:00:00,
2013-03-29 02:05:00,64.3,19.2,30.08,ENE,68,2.0,3.4,18,0.00,,,0.00,WUHU216HW,2013-03-29 09:05:00,
2013-03-29 02:10:00,63.9,18.9,30.08,East,90,1.8,3.1,18,0.00,,,0.00,WUHU216HW,2013-03-29 09:10:00,
2013-03-29 02:15:00,63.7,18.8,30.08,East,90,1.1,2.5,18,0.00,,,0.00,WUHU216HW,2013-03-29 09:15:00,
2013-03-29 02:20:00,63.4,20.1,30.07,NE,45,1.1,2.5,19,0.00,,,0.00,WUHU216HW,2013-03-29 09:20:00,
2013-03-29 02:25:00,63.0,19.8,30.07,ENE,68,1.8,2.5,19,0.00,,,0.00,WUHU216HW,2013-03-29 09:25:00,
2013-03-29 02:30:00,62.8,19.6,30.08,ENE,68,1.6,2.5,19,0.00,,,0.00,WUHU216HW,2013-03-29 09:30:00,
2013-03-29 02:35:00,62.6,19.5,30.07,ENE,68,1.8,3.1,19,0.00,,,0.00,WUHU216HW,2013-03-29 09:35:00,
2013-03-29 02:40:00,62.3,19.2,30.07,East,90,2.5,4.0,19,0.00,,,0.00,WUHU216HW,2013-03-29 09:40:00,
2013-03-29 02:45:00,62.1,19.1,30.07,East,90,3.1,4.0,19,0.00,,,0.00,WUHU216HW,2013-03-29 09:45:00,
2013-03-29 02:50:00,61.9,18.9,30.07,ENE,68,3.4,4.0,19,0.00,,,0.00,WUHU216HW,2013-03-29 09:50:00,
2013-03-29 02:55:00,61.7,20.3,30.07,East,90,2.5,3.6,20,0.00,,,0.00,WUHU216HW,2013-03-29 09:55:00,
2013-03-29 03:00:00,61.6,20.2,30.06,East,90,2.9,3.6,20,0.00,,,0.00,WUHU216HW,2013-03-29 10:00:00,
2013-03-29 03:05:00,61.6,21.2,30.06,ENE,68,1.8,3.4,21,0.00,,,0.00,WUHU216HW,2013-03-29 10:05:00,
2013-03-29 03:10:00,61.4,21.0,30.06,ENE,68,2.0,3.1,21,0.00,,,0.00,WUHU216HW,2013-03-29 10:10:00,
2013-03-29 03:15:00,61.4,21.0,30.06,ENE,68,1.1,2.0,21,0.00,,,0.00,WUHU216HW,2013-03-29 10:15:00,
2013-03-29 03:20:00,61.4,21.0,30.06,East,90,1.1,2.0,21,0.00,,,0.00,WUHU216HW,2013-03-29 10:20:00,
2013-03-29 03:25:00,61.2,20.9,30.06,ESE,113,2.5,2.5,21,0.00,,,0.00,WUHU216HW,2013-03-29 10:25:00,
2013-03-29 03:30:00,61.2,20.9,30.06,East,90,2.5,3.8,21,0.00,,,0.00,WUHU216HW,2013-03-29 10:30:00,
2013-03-29 03:35:00,60.8,20.6,30.06,East,90,3.4,4.0,21,0.00,,,0.00,WUHU216HW,2013-03-29 10:35:00,
2013-03-29 03:40:00,60.8,20.6,30.06,East,90,2.9,4.5,21,0.00,,,0.00,WUHU216HW,2013-03-29 10:40:00,
2013-03-29 03:45:00,60.7,20.4,30.06,ESE,113,2.9,4.5,21,0.00,,,0.00,WUHU216HW,2013-03-29 10:45:00,
2013-03-29 03:50:00,60.7,20.4,30.06,East,90,3.4,4.0,21,0.00,,,0.00,WUHU216HW,2013-03-29 10:50:00,
2013-03-29 03:55:00,60.5,20.3,30.06,East,90,3.4,4.0,21,0.00,,,0.00,WUHU216HW,2013-03-29 10:55:00,
2013-03-29 04:00:00,60.5,20.3,30.06,East,90,4.5,4.5,21,0.00,,,0.00,WUHU216HW,2013-03-29 11:00:00,
2013-03-29 04:05:00,60.5,20.3,30.06,ESE,113,3.6,4.5,21,0.00,,,0.00,WUHU216HW,2013-03-29 11:05:00,
2013-03-29 04:10:00,60.3,20.1,30.06,ENE,68,3.4,4.5,21,0.00,,,0.00,WUHU216HW,2013-03-29 11:10:00,
2013-03-29 04:15:00,60.3,20.1,30.06,NE,45,3.4,4.0,21,0.00,,,0.00,WUHU216HW,2013-03-29 11:15:00,
2013-03-29 04:20:00,60.7,20.4,30.06,NE,45,3.4,4.0,21,0.00,,,0.00,WUHU216HW,2013-03-29 11:20:00,
2013-03-29 04:25:00,60.8,20.6,30.06,NE,45,4.0,4.0,21,0.00,,,0.00,WUHU216HW,2013-03-29 11:25:00,
2013-03-29 04:30:00,61.2,20.9,30.07,NNE,23,2.5,4.0,21,0.00,,,0.00,WUHU216HW,2013-03-29 11:30:00,
2013-03-29 04:35:00,61.2,20.9,30.06,NE,45,2.7,4.0,21,0.00,,,0.00,WUHU216HW,2013-03-29 11:35:00,
2013-03-29 04:40:00,61.2,20.9,30.06,NNE,23,3.8,4.9,21,0.00,,,0.00,WUHU216HW,2013-03-29 11:40:00,
2013-03-29 04:45:00,61.4,21.0,30.06,ENE,68,4.3,4.9,21,0.00,,,0.00,WUHU216HW,2013-03-29 11:45:00,
2013-03-29 04:50:00,61.4,21.0,30.06,ENE,68,3.8,4.7,21,0.00,,,0.00,WUHU216HW,2013-03-29 11:50:00,
2013-03-29 04:55:00,61.4,21.0,30.06,East,90,5.1,5.1,21,0.00,,,0.00,WUHU216HW,2013-03-29 11:55:00,
2013-03-29 05:00:00,61.2,20.9,30.06,ENE,68,2.9,5.1,21,0.00,,,0.00,WUHU216HW,2013-03-29 12:00:00,
2013-03-29 05:05:00,60.8,20.6,30.06,NE,45,2.9,3.8,21,0.00,,,0.00,WUHU216HW,2013-03-29 12:05:00,
2013-03-29 05:10:00,60.8,20.6,30.06,ENE,68,0.0,3.4,21,0.00,,,0.00,WUHU216HW,2013-03-29 12:10:00,
2013-03-29 05:15:00,60.7,21.3,30.07,NNW,338,1.1,2.9,22,0.00,,,0.00,WUHU216HW,2013-03-29 12:15:00,
2013-03-29 05:20:00,60.7,21.3,30.06,North,0,1.1,2.2,22,0.00,,,0.00,WUHU216HW,2013-03-29 12:20:00,
2013-03-29 05:25:00,60.8,21.5,30.06,ESE,113,0.7,2.2,22,0.00,,,0.00,WUHU216HW,2013-03-29 12:25:00,
2013-03-29 05:30:00,60.7,21.3,30.07,ESE,113,2.0,2.5,22,0.00,,,0.00,WUHU216HW,2013-03-29 12:30:00,
2013-03-29 05:35:00,60.5,21.3,30.07,East,90,2.0,3.4,22,0.00,,,0.00,WUHU216HW,2013-03-29 12:35:00,
2013-03-29 05:40:00,60.1,20.9,30.06,East,90,2.7,3.6,22,0.00,,,0.00,WUHU216HW,2013-03-29 12:40:00,
2013-03-29 05:45:00,59.9,20.7,30.06,ENE,68,4.0,4.0,22,0.00,,,0.00,WUHU216HW,2013-03-29 12:45:00,
2013-03-29 05:50:00,59.9,20.7,30.06,ENE,68,2.5,4.7,22,0.00,,,0.00,WUHU216HW,2013-03-29 12:50:00,
2013-03-29 05:55:00,59.9,20.7,30.06,East,90,3.6,4.7,22,0.00,,,0.00,WUHU216HW,2013-03-29 12:55:00,
2013-03-29 06:00:00,60.1,20.9,30.07,ESE,113,2.7,4.7,22,0.00,,,0.00,WUHU216HW,2013-03-29 13:00:00,
2013-03-29 06:05:00,60.1,20.9,30.06,ENE,68,4.0,4.7,22,0.00,,,0.00,WUHU216HW,2013-03-29 13:05:00,
2013-03-29 06:10:00,60.5,21.3,30.06,East,90,3.4,4.3,22,0.00,,,0.00,WUHU216HW,2013-03-29 13:10:00,
2013-03-29 06:15:00,60.7,21.3,30.06,ENE,68,3.8,4.0,22,0.00,,,0.00,WUHU216HW,2013-03-29 13:15:00,
2013-03-29 06:20:00,60.8,21.5,30.07,ENE,68,2.7,4.7,22,0.00,,,0.00,WUHU216HW,2013-03-29 13:20:00,
2013-03-29 06:25:00,60.7,21.3,30.07,East,90,4.0,4.7,22,0.00,,,0.00,WUHU216HW,2013-03-29 13:25:00,
2013-03-29 06:30:00,60.7,21.3,30.07,East,90,2.9,4.7,22,0.00,,,0.00,WUHU216HW,2013-03-29 13:30:00,
2013-03-29 06:35:00,60.7,22.3,30.07,ENE,68,3.1,4.5,23,0.00,,,0.00,WUHU216HW,2013-03-29 13:35:00,
2013-03-29 06:40:00,60.5,22.1,30.07,East,90,2.5,4.5,23,0.00,,,0.00,WUHU216HW,2013-03-29 13:40:00,
2013-03-29 06:45:00,60.5,22.1,30.07,SW,225,1.8,3.4,23,0.00,,,0.00,WUHU216HW,2013-03-29 13:45:00,
2013-03-29 06:50:00,60.1,22.9,30.07,SSW,203,1.6,2.9,24,0.00,,,0.00,WUHU216HW,2013-03-29 13:50:00,
2013-03-29 06:55:00,59.8,22.5,30.08,SSW,203,0.4,2.5,24,0.00,,,0.00,WUHU216HW,2013-03-29 13:55:00,
2013-03-29 07:00:00,59.4,22.2,30.08,North,0,1.1,1.8,24,0.00,,,0.00,WUHU216HW,2013-03-29 14:00:00,
2013-03-29 07:05:00,59.4,23.1,30.08,NNW,338,2.5,2.5,25,0.00,,,0.00,WUHU216HW,2013-03-29 14:05:00,
2013-03-29 07:10:00,59.4,23.1,30.08,NNW,338,1.3,2.9,25,0.00,,,0.00,WUHU216HW,2013-03-29 14:10:00,
2013-03-29 07:15:00,59.4,23.1,30.08,NW,315,2.0,2.9,25,0.00,,,0.00,WUHU216HW,2013-03-29 14:15:00,
2013-03-29 07:20:00,59.6,23.3,30.08,WNW,293,0.4,2.0,25,0.00,,,0.00,WUHU216HW,2013-03-29 14:20:00,
2013-03-29 07:25:00,59.6,23.3,30.08,SSW,203,0.4,2.0,25,0.00,,,0.00,WUHU216HW,2013-03-29 14:25:00,
2013-03-29 07:30:00,59.8,23.5,30.08,NE,45,0.7,1.1,25,0.00,,,0.00,WUHU216HW,2013-03-29 14:30:00,
2013-03-29 07:35:00,59.9,23.7,30.09,ENE,68,0.0,1.6,25,0.00,,,0.00,WUHU216HW,2013-03-29 14:35:00,
2013-03-29 07:40:00,60.3,24.0,30.09,East,90,1.8,3.4,25,0.00,,,0.00,WUHU216HW,2013-03-29 14:40:00,
2013-03-29 07:45:00,60.5,24.1,30.09,East,90,1.8,3.4,25,0.00,,,0.00,WUHU216HW,2013-03-29 14:45:00,
2013-03-29 07:50:00,60.8,24.4,30.09,ESE,113,1.1,2.9,25,0.00,,,0.00,WUHU216HW,2013-03-29 14:50:00,
2013-03-29 07:55:00,61.2,24.7,30.09,East,90,0.4,2.9,25,0.00,,,0.00,WUHU216HW,2013-03-29 14:55:00,
2013-03-29 08:00:00,61.6,25.0,30.09,ESE,113,1.1,2.5,25,0.00,,,0.00,WUHU216HW,2013-03-29 15:00:00,
2013-03-29 08:05:00,61.9,25.3,30.09,NE,45,0.2,2.0,25,0.00,,,0.00,WUHU216HW,2013-03-29 15:05:00,
2013-03-29 08:10:00,62.5,25.7,30.09,NNW,338,0.0,1.6,25,0.00,,,0.00,WUHU216HW,2013-03-29 15:10:00,
2013-03-29 08:15:00,62.8,26.1,30.09,WSW,248,0.0,0.7,25,0.00,,,0.00,WUHU216HW,2013-03-29 15:15:00,
2013-03-29 08:20:00,63.0,26.2,30.09,SSW,203,0.0,0.2,25,0.00,,,0.00,WUHU216HW,2013-03-29 15:20:00,
2013-03-29 08:25:00,63.4,26.6,30.09,SSW,203,1.6,1.8,25,0.00,,,0.00,WUHU216HW,2013-03-29 15:25:00,
2013-03-29 08:30:00,63.5,26.7,30.09,SSE,158,1.1,1.8,25,0.00,,,0.00,WUHU216HW,2013-03-29 15:30:00,
2013-03-29 08:35:00,63.9,27.0,30.10,SSE,158,0.0,2.0,25,0.00,,,0.00,WUHU216HW,2013-03-29 15:35:00,
2013-03-29 08:40:00,64.4,27.5,30.10,WNW,293,0.9,2.2,25,0.00,,,0.00,WUHU216HW,2013-03-29 15:40:00,
2013-03-29 08:45:00,65.0,27.9,30.10,WSW,248,3.8,3.8,25,0.00,,,0.00,WUHU216HW,2013-03-29 15:45:00,
2013-03-29 08:50:00,65.5,28.4,30.10,SW,225,3.6,4.3,25,0.00,,,0.00,WUHU216HW,2013-03-29 15:50:00,
2013-03-29 08:55:00,65.9,28.7,30.10,SW,225,1.6,4.3,25,0.00,,,0.00,WUHU216HW,2013-03-29 15:55:00,
2013-03-29 09:00:00,66.1,28.8,30.10,WSW,248,2.9,4.3,25,0.00,,,0.00,WUHU216HW,2013-03-29 16:00:00,
2013-03-29 09:05:00,66.4,29.2,30.10,WSW,248,3.6,4.0,25,0.00,,,0.00,WUHU216HW,2013-03-29 16:05:00,
2013-03-29 09:10:00,66.8,29.4,30.10,South,180,2.5,4.0,25,0.00,,,0.00,WUHU216HW,2013-03-29 16:10:00,
2013-03-29 09:15:00,66.6,29.3,30.10,South,180,1.3,3.8,25,0.00,,,0.00,WUHU216HW,2013-03-29 16:15:00,
2013-03-29 09:20:00,66.8,29.4,30.10,SW,225,2.2,3.4,25,0.00,,,0.00,WUHU216HW,2013-03-29 16:20:00,
2013-03-29 09:25:00,67.1,29.7,30.10,WSW,248,1.8,3.6,25,0.00,,,0.00,WUHU216HW,2013-03-29 16:25:00,
2013-03-29 09:30:00,67.5,30.1,30.10,SSE,158,1.3,4.7,25,0.00,,,0.00,WUHU216HW,2013-03-29 16:30:00,
2013-03-29 09:35:00,67.5,30.1,30.10,SSW,203,3.1,4.7,25,0.00,,,0.00,WUHU216HW,2013-03-29 16:35:00,
2013-03-29 09:40:00,67.7,30.3,30.10,SE,135,2.5,4.7,25,0.00,,,0.00,WUHU216HW,2013-03-29 16:40:00,
2013-03-29 09:45:00,67.9,30.3,30.10,SE,135,2.5,4.9,25,0.00,,,0.00,WUHU216HW,2013-03-29 16:45:00,
2013-03-29 09:50:00,68.0,30.5,30.10,South,180,4.9,4.9,25,0.00,,,0.00,WUHU216HW,2013-03-29 16:50:00,
2013-03-29 09:55:00,68.4,30.8,30.10,SE,135,1.6,4.9,25,0.00,,,0.00,WUHU216HW,2013-03-29 16:55:00,
2013-03-29 10:00:00,68.6,30.0,30.10,SSE,158,3.1,4.7,24,0.00,,,0.00,WUHU216HW,2013-03-29 17:00:00,
2013-03-29 10:05:00,68.9,30.2,30.10,SW,225,0.4,4.7,24,0.00,,,0.00,WUHU216HW,2013-03-29 17:05:00,
2013-03-29 10:10:00,69.3,30.6,30.10,West,270,2.0,5.6,24,0.00,,,0.00,WUHU216HW,2013-03-29 17:10:00,
2013-03-29 10:15:00,70.0,31.1,30.10,SW,225,2.5,5.6,24,0.00,,,0.00,WUHU216HW,2013-03-29 17:15:00,
2013-03-29 10:20:00,70.4,30.5,30.10,ESE,113,4.0,4.0,23,0.00,,,0.00,WUHU216HW,2013-03-29 17:20:00,
2013-03-29 10:25:00,70.9,31.0,30.10,SW,225,4.3,4.3,23,0.00,,,0.00,WUHU216HW,2013-03-29 17:25:00,
2013-03-29 10:30:00,71.5,31.4,30.10,ESE,113,3.6,4.3,23,0.00,,,0.00,WUHU216HW,2013-03-29 17:30:00,
2013-03-29 10:35:00,71.6,31.5,30.10,SW,225,2.0,4.7,23,0.00,,,0.00,WUHU216HW,2013-03-29 17:35:00,
2013-03-29 10:40:00,72.4,32.1,30.10,ESE,113,2.2,4.7,23,0.00,,,0.00,WUHU216HW,2013-03-29 17:40:00,
2013-03-29 10:45:00,72.7,32.5,30.10,SSE,158,1.8,5.4,23,0.00,,,0.00,WUHU216HW,2013-03-29 17:45:00,
2013-03-29 10:50:00,73.1,32.8,30.11,North,0,1.3,6.0,23,0.00,,,0.00,WUHU216HW,2013-03-29 17:50:00,
2013-03-29 10:55:00,73.4,33.1,30.11,SSE,158,3.8,6.0,23,0.00,,,0.00,WUHU216HW,2013-03-29 17:55:00,
2013-03-29 11:00:00,73.8,34.4,30.11,ESE,113,3.4,6.9,24,0.00,,,0.00,WUHU216HW,2013-03-29 18:00:00,
2013-03-29 11:05:00,74.3,34.8,30.10,ESE,113,2.9,6.9,24,0.00,,,0.00,WUHU216HW,2013-03-29 18:05:00,
2013-03-29 11:10:00,74.7,35.2,30.10,West,270,4.0,6.3,24,0.00,,,0.00,WUHU216HW,2013-03-29 18:10:00,
2013-03-29 11:15:00,75.2,35.7,30.10,SSE,158,4.3,6.9,24,0.00,,,0.00,WUHU216HW,2013-03-29 18:15:00,
2013-03-29 11:20:00,76.0,35.2,30.10,ENE,68,5.4,6.9,23,0.00,,,0.00,WUHU216HW,2013-03-29 18:20:00,
2013-03-29 11:25:00,76.3,35.5,30.10,ESE,113,3.1,6.9,23,0.00,,,0.00,WUHU216HW,2013-03-29 18:25:00,
2013-03-29 11:30:00,76.7,35.7,30.10,ENE,68,2.7,6.5,23,0.00,,,0.00,WUHU216HW,2013-03-29 18:30:00,
2013-03-29 11:35:00,77.0,36.1,30.10,SE,135,5.1,6.0,23,0.00,,,0.00,WUHU216HW,2013-03-29 18:35:00,
2013-03-29 11:40:00,77.4,35.3,30.10,North,0,0.7,6.0,22,0.00,,,0.00,WUHU216HW,2013-03-29 18:40:00,
2013-03-29 11:45:00,77.8,34.6,30.10,NNE,23,4.5,4.9,21,0.00,,,0.00,WUHU216HW,2013-03-29 18:45:00,
2013-03-29 11:50:00,77.8,34.6,30.10,NNE,23,2.5,4.7,21,0.00,,,0.00,WUHU216HW,2013-03-29 18:50:00,
2013-03-29 11:55:00,78.3,35.0,30.09,SW,225,4.3,8.3,21,0.00,,,0.00,WUHU216HW,2013-03-29 18:55:00,
2013-03-29 12:00:00,78.8,32.7,30.10,SSW,203,6.3,8.3,19,0.00,,,0.00,WUHU216HW,2013-03-29 19:00:00,
2013-03-29 12:05:00,78.8,31.1,30.10,ESE,113,1.3,6.9,18,0.00,,,0.00,WUHU216HW,2013-03-29 19:05:00,
2013-03-29 12:10:00,79.0,29.5,30.10,WNW,293,3.8,6.9,17,0.00,,,0.00,WUHU216HW,2013-03-29 19:10:00,
2013-03-29 12:15:00,79.2,29.7,30.09,WNW,293,3.8,6.7,17,0.00,,,0.00,WUHU216HW,2013-03-29 19:15:00,
2013-03-29 12:20:00,79.2,29.7,30.09,SSW,203,1.6,6.7,17,0.00,,,0.00,WUHU216HW,2013-03-29 19:20:00,
2013-03-29 12:25:00,79.4,29.8,30.09,South,180,6.0,8.5,17,0.00,,,0.00,WUHU216HW,2013-03-29 19:25:00,
2013-03-29 12:30:00,80.1,28.8,30.09,WSW,248,5.4,8.5,16,0.00,,,0.00,WUHU216HW,2013-03-29 19:30:00,
2013-03-29 12:35:00,80.3,27.3,30.09,SW,225,12.1,13.0,15,0.00,,,0.00,WUHU216HW,2013-03-29 19:35:00,
2013-03-29 12:40:00,80.3,27.3,30.09,SW,225,5.4,13.0,15,0.00,,,0.00,WUHU216HW,2013-03-29 19:40:00,
2013-03-29 12:45:00,80.5,27.4,30.08,WSW,248,4.0,12.1,15,0.00,,,0.00,WUHU216HW,2013-03-29 19:45:00,
2013-03-29 12:50:00,80.6,27.5,30.09,North,0,1.6,6.9,15,0.00,,,0.00,WUHU216HW,2013-03-29 19:50:00,
2013-03-29 12:55:00,80.5,27.4,30.08,West,270,4.9,7.2,15,0.00,,,0.00,WUHU216HW,2013-03-29 19:55:00,
2013-03-29 13:00:00,80.5,27.4,30.09,West,270,5.4,7.2,15,0.00,,,0.00,WUHU216HW,2013-03-29 20:00:00,
2013-03-29 13:05:00,80.5,27.4,30.09,West,270,5.4,7.2,15,0.00,,,0.00,WUHU216HW,2013-03-29 20:05:00,
2013-03-29 13:59:00,84.1,25.1,30.06,WSW,248,6.0,6.0,12,0.00,,,0.00,WUHU216HW,2013-03-29 20:59:00,
2013-03-29 14:04:00,83.9,24.9,30.06,SW,225,5.8,12.1,12,0.00,,,0.00,WUHU216HW,2013-03-29 21:04:00,
2013-03-29 14:09:00,83.9,24.9,30.06,SW,225,4.7,12.1,12,0.00,,,0.00,WUHU216HW,2013-03-29 21:09:00,
2013-03-29 14:14:00,84.6,25.5,30.06,North,0,4.0,10.5,12,0.00,,,0.00,WUHU216HW,2013-03-29 21:14:00,
2013-03-29 14:19:00,84.6,25.5,30.06,SW,225,9.6,9.8,12,0.00,,,0.00,WUHU216HW,2013-03-29 21:19:00,
2013-03-29 14:24:00,84.2,25.2,30.05,WNW,293,10.5,12.1,12,0.00,,,0.00,WUHU216HW,2013-03-29 21:24:00,
2013-03-29 14:29:00,83.9,24.9,30.06,NNW,338,4.0,12.1,12,0.00,,,0.00,WUHU216HW,2013-03-29 21:29:00,
2013-03-29 14:34:00,83.7,26.6,30.06,NNE,23,1.8,10.1,13,0.00,,,0.00,WUHU216HW,2013-03-29 21:34:00,
2013-03-29 14:39:00,83.5,26.4,30.06,WSW,248,6.5,8.3,13,0.00,,,0.00,WUHU216HW,2013-03-29 21:39:00,
2013-03-29 14:44:00,83.9,24.9,30.05,WSW,248,4.3,10.5,12,0.00,,,0.00,WUHU216HW,2013-03-29 21:44:00,
2013-03-29 14:49:00,84.6,27.2,30.06,SW,225,5.8,10.5,13,0.00,,,0.00,WUHU216HW,2013-03-29 21:49:00,
2013-03-29 14:54:00,85.1,25.9,30.05,SW,225,11.9,13.9,12,0.00,,,0.00,WUHU216HW,2013-03-29 21:54:00,
2013-03-29 14:59:00,84.4,25.4,30.05,SW,225,5.8,13.9,12,0.00,,,0.00,WUHU216HW,2013-03-29 21:59:00,
2013-03-29 15:04:00,84.6,23.8,30.05,NW,315,5.6,11.9,11,0.00,,,0.00,WUHU216HW,2013-03-29 22:04:00,
2013-03-29 15:09:00,84.6,23.8,30.05,WNW,293,4.0,11.4,11,0.00,,,0.00,WUHU216HW,2013-03-29 22:09:00,
2013-03-29 15:14:00,84.6,23.8,30.05,WNW,293,4.0,11.4,11,0.00,,,0.00,WUHU216HW,2013-03-29 22:14:00,
2013-03-29 15:19:00,85.0,24.0,30.05,WSW,248,6.3,10.1,11,0.00,,,0.00,WUHU216HW,2013-03-29 22:19:00,
2013-03-29 15:24:00,84.4,23.7,30.05,West,270,5.4,10.1,11,0.00,,,0.00,WUHU216HW,2013-03-29 22:24:00,
2013-03-29 15:29:00,84.4,23.7,30.05,WNW,293,7.4,9.2,11,0.00,,,0.00,WUHU216HW,2013-03-29 22:29:00,
2013-03-29 15:34:00,84.6,22.1,30.05,West,270,10.7,12.5,10,0.00,,,0.00,WUHU216HW,2013-03-29 22:34:00,
2013-03-29 15:39:00,84.6,23.8,30.05,SW,225,8.7,12.5,11,0.00,,,0.00,WUHU216HW,2013-03-29 22:39:00,
2013-03-29 15:44:00,84.2,23.5,30.05,WSW,248,6.3,14.3,11,0.00,,,0.00,WUHU216HW,2013-03-29 22:44:00,
2013-03-29 15:49:00,84.6,23.8,30.05,ENE,68,1.1,14.3,11,0.00,,,0.00,WUHU216HW,2013-03-29 22:49:00,
2013-03-29 15:54:00,84.6,22.1,30.05,NW,315,10.1,11.4,10,0.00,,,0.00,WUHU216HW,2013-03-29 22:54:00,
2013-03-29 15:59:00,84.4,22.0,30.05,NNW,338,6.0,11.4,10,0.00,,,0.00,WUHU216HW,2013-03-29 22:59:00,
2013-03-29 16:04:00,83.9,21.5,30.05,WNW,293,5.4,10.5,10,0.00,,,0.00,WUHU216HW,2013-03-29 23:04:00,
2013-03-29 16:09:00,84.4,22.0,30.05,WNW,293,8.9,9.8,8,0.00,,,0.00,WUHU216HW,2013-03-29 23:09:00,
2013-03-29 16:14:00,84.6,22.1,30.05,WSW,248,8.9,9.8,8,0.00,,,0.00,WUHU216HW,2013-03-29 23:14:00,
2013-03-29 16:19:00,85.3,22.7,30.04,NNW,338,4.7,8.9,8,0.00,,,0.00,WUHU216HW,2013-03-29 23:19:00,
2013-03-29 16:24:00,85.7,23.0,30.04,WNW,293,6.9,8.9,8,0.00,,,0.00,WUHU216HW,2013-03-29 23:24:00,
2013-03-29 16:29:00,85.9,23.0,30.04,NNW,338,10.3,10.3,8,0.00,,,0.00,WUHU216HW,2013-03-29 23:29:00,
2013-03-29 16:34:00,85.3,22.7,30.04,NW,315,8.1,12.1,8,0.00,,,0.00,WUHU216HW,2013-03-29 23:34:00,
2013-03-29 16:39:00,84.6,22.1,30.04,NW,315,4.0,12.1,8,0.00,,,0.00,WUHU216HW,2013-03-29 23:39:00,
2013-03-29 16:44:00,84.4,22.0,30.04,WNW,293,6.3,9.4,8,0.00,,,0.00,WUHU216HW,2013-03-29 23:44:00,
2013-03-29 16:49:00,84.4,22.0,30.04,WNW,293,6.0,12.5,8,0.00,,,0.00,WUHU216HW,2013-03-29 23:49:00,
2013-03-29 16:54:00,84.8,22.2,30.04,West,270,6.3,12.5,7,0.00,,,0.00,WUHU216HW,2013-03-29 23:54:00,
2013-03-29 16:59:00,84.8,22.2,30.04,WSW,248,3.4,10.1,8,0.00,,,0.00,WUHU216HW,2013-03-29 23:59:00,
2013-03-29 17:04:00,84.8,22.2,30.04,NW,315,3.6,10.1,8,0.00,,,0.00,WUHU216HW,2013-03-30 00:04:00,
2013-03-29 17:09:00,84.8,22.2,30.04,NNW,338,7.2,7.6,8,0.00,,,0.00,WUHU216HW,2013-03-30 00:09:00,
2013-03-29 17:14:00,84.1,21.7,30.04,West,270,8.3,9.6,8,0.00,,,0.00,WUHU216HW,2013-03-30 00:14:00,
2013-03-29 17:19:00,83.2,21.1,30.04,WSW,248,11.4,11.4,8,0.00,,,0.00,WUHU216HW,2013-03-30 00:19:00,
2013-03-29 17:24:00,83.0,20.9,30.04,WSW,248,6.7,11.6,8,0.00,,,0.00,WUHU216HW,2013-03-30 00:24:00,
2013-03-29 17:29:00,83.2,21.1,30.05,North,0,6.9,11.6,8,0.00,,,0.00,WUHU216HW,2013-03-30 00:29:00,
2013-03-29 17:34:00,82.4,20.5,30.05,NNW,338,7.6,9.2,10,0.00,,,0.00,WUHU216HW,2013-03-30 00:34:00,
2013-03-29 17:39:00,82.4,20.5,30.05,NW,315,5.1,10.5,10,0.00,,,0.00,WUHU216HW,2013-03-30 00:39:00,
2013-03-29 17:44:00,82.4,20.5,30.05,WNW,293,12.5,13.4,9,0.00,,,0.00,WUHU216HW,2013-03-30 00:44:00,
2013-03-29 17:49:00,82.1,20.3,30.05,NW,315,5.1,13.4,10,0.00,,,0.00,WUHU216HW,2013-03-30 00:49:00,
2013-03-29 17:54:00,81.7,20.0,30.05,North,0,5.6,12.5,8,0.00,,,0.00,WUHU216HW,2013-03-30 00:54:00,
2013-03-29 17:59:00,81.4,19.6,30.05,NW,315,5.8,12.3,8,0.00,,,0.00,WUHU216HW,2013-03-30 00:59:00,
2013-03-29 18:04:00,81.2,19.5,30.05,West,270,5.8,11.9,8,0.00,,,0.00,WUHU216HW,2013-03-30 01:04:00,
2013-03-29 18:09:00,80.8,19.3,30.05,NNW,338,6.0,11.9,8,0.00,,,0.00,WUHU216HW,2013-03-30 01:09:00,
2013-03-29 18:14:00,80.5,18.9,30.05,NNW,338,9.2,9.2,8,0.00,,,0.00,WUHU216HW,2013-03-30 01:14:00,
2013-03-29 18:19:00,79.9,18.6,30.06,NNW,338,6.0,11.2,8,0.00,,,0.00,WUHU216HW,2013-03-30 01:19:00,
2013-03-29 18:24:00,79.2,17.9,30.06,WNW,293,5.6,11.2,8,0.00,,,0.00,WUHU216HW,2013-03-30 01:24:00,
2013-03-29 18:29:00,78.8,17.6,30.05,NNW,338,4.0,9.2,8,0.00,,,0.00,WUHU216HW,2013-03-30 01:29:00,
2013-03-29 18:34:00,78.1,17.1,30.05,West,270,5.1,9.2,8,0.00,,,0.00,WUHU216HW,2013-03-30 01:34:00,
2013-03-29 18:39:00,77.8,16.9,30.05,NNW,338,6.0,6.5,8,0.00,,,0.00,WUHU216HW,2013-03-30 01:39:00,
2013-03-29 18:44:00,77.2,16.5,30.05,NW,315,4.0,6.5,8,0.00,,,0.00,WUHU216HW,2013-03-30 01:44:00,
2013-03-29 18:49:00,76.9,16.2,30.04,North,0,4.3,6.0,8,0.00,,,0.00,WUHU216HW,2013-03-30 01:49:00,
2013-03-29 18:54:00,76.5,15.9,30.05,NNW,338,3.1,5.8,9,0.00,,,0.00,WUHU216HW,2013-03-30 01:54:00,
2013-03-29 18:59:00,76.1,15.7,30.05,NNW,338,2.5,4.9,10,0.00,,,0.00,WUHU216HW,2013-03-30 01:59:00,
2013-03-29 19:04:00,75.8,15.4,30.05,North,0,1.8,4.7,10,0.00,,,0.00,WUHU216HW,2013-03-30 02:04:00,
2013-03-29 19:09:00,75.6,15.2,30.05,NNE,23,4.0,4.9,10,0.00,,,0.00,WUHU216HW,2013-03-30 02:09:00,
2013-03-29 19:14:00,75.4,15.1,30.05,North,0,5.4,8.5,10,0.00,,,0.00,WUHU216HW,2013-03-30 02:14:00,
2013-03-29 19:19:00,75.4,15.1,30.05,NW,315,2.2,8.5,10,0.00,,,0.00,WUHU216HW,2013-03-30 02:19:00,
2013-03-29 19:24:00,75.1,14.9,30.05,NW,315,2.9,6.3,10,0.00,,,0.00,WUHU216HW,2013-03-30 02:24:00,
2013-03-29 19:29:00,74.9,14.7,30.05,NNW,338,4.5,5.4,10,0.00,,,0.00,WUHU216HW,2013-03-30 02:29:00,
2013-03-29 19:34:00,74.9,14.7,30.05,North,0,6.9,6.9,10,0.00,,,0.00,WUHU216HW,2013-03-30 02:34:00,
2013-03-29 19:39:00,74.7,14.6,30.05,NW,315,4.0,6.9,10,0.00,,,0.00,WUHU216HW,2013-03-30 02:39:00,
2013-03-29 19:44:00,74.9,14.7,30.05,North,0,6.9,8.5,10,0.00,,,0.00,WUHU216HW,2013-03-30 02:44:00,
2013-03-29 19:49:00,75.1,14.9,30.05,North,0,4.5,9.2,10,0.00,,,0.00,WUHU216HW,2013-03-30 02:49:00,
2013-03-29 19:54:00,74.9,14.7,30.05,NNE,23,6.5,10.3,10,0.00,,,0.00,WUHU216HW,2013-03-30 02:54:00,
2013-03-29 19:59:00,74.9,14.7,30.05,NNE,23,6.3,10.3,10,0.00,,,0.00,WUHU216HW,2013-03-30 02:59:00,
2013-03-29 20:04:00,74.9,14.7,30.05,NNE,23,12.1,12.1,10,0.00,,,0.00,WUHU216HW,2013-03-30 03:04:00,
2013-03-29 20:09:00,74.9,14.7,30.05,NNW,338,7.4,12.1,10,0.00,,,0.00,WUHU216HW,2013-03-30 03:09:00,
2013-03-29 20:14:00,74.9,14.7,30.06,North,0,9.6,12.1,10,0.00,,,0.00,WUHU216HW,2013-03-30 03:14:00,
2013-03-29 20:19:00,74.9,14.7,30.05,NNW,338,7.2,11.4,10,0.00,,,0.00,WUHU216HW,2013-03-30 03:19:00,
2013-03-29 20:24:00,74.7,14.6,30.05,NNW,338,4.5,11.4,10,0.00,,,0.00,WUHU216HW,2013-03-30 03:24:00,
2013-03-29 20:29:00,74.5,14.4,30.06,NNW,338,4.3,9.8,10,0.00,,,0.00,WUHU216HW,2013-03-30 03:29:00,
2013-03-29 20:34:00,74.5,14.4,30.06,North,0,4.7,9.2,10,0.00,,,0.00,WUHU216HW,2013-03-30 03:34:00,
2013-03-29 20:39:00,74.2,14.2,30.06,North,0,11.4,11.4,10,0.00,,,0.00,WUHU216HW,2013-03-30 03:39:00,
2013-03-29 20:44:00,74.2,14.2,30.06,NNW,338,5.1,11.4,10,0.00,,,0.00,WUHU216HW,2013-03-30 03:44:00,
2013-03-29 20:49:00,74.2,14.2,30.07,NNW,338,4.0,11.4,10,0.00,,,0.00,WUHU216HW,2013-03-30 03:49:00,
2013-03-29 20:54:00,73.8,14.0,30.07,North,0,4.5,6.5,10,0.00,,,0.00,WUHU216HW,2013-03-30 03:54:00,
2013-03-29 20:59:00,73.8,14.0,30.07,North,0,4.7,6.5,10,0.00,,,0.00,WUHU216HW,2013-03-30 03:59:00,
2013-03-29 21:00:00,73.8,14.0,30.07,North,0,4.7,6.5,10,0.00,,,0.00,WUHU216HW,2013-03-30 04:00:00,
2013-03-29 21:05:00,73.8,14.0,30.07,North,0,3.4,6.5,10,0.00,,,0.00,WUHU216HW,2013-03-30 04:05:00,
2013-03-29 21:10:00,73.6,13.8,30.07,NNW,338,4.0,6.5,10,0.00,,,0.00,WUHU216HW,2013-03-30 04:10:00,
2013-03-29 21:15:00,73.8,14.0,30.07,North,0,6.0,6.0,10,0.00,,,0.00,WUHU216HW,2013-03-30 04:15:00,
2013-03-29 21:20:00,73.8,14.0,30.07,North,0,3.4,8.1,10,0.00,,,0.00,WUHU216HW,2013-03-30 04:20:00,
2013-03-29 21:25:00,73.8,14.0,30.08,North,0,2.0,8.1,10,0.00,,,0.00,WUHU216HW,2013-03-30 04:25:00,
2013-03-29 21:30:00,73.4,13.7,30.08,NNE,23,2.7,4.9,10,0.00,,,0.00,WUHU216HW,2013-03-30 04:30:00,
2013-03-29 21:35:00,73.4,13.7,30.08,NNW,338,4.7,5.1,10,0.00,,,0.00,WUHU216HW,2013-03-30 04:35:00,
2013-03-29 21:40:00,73.3,13.5,30.08,North,0,2.9,5.1,10,0.00,,,0.00,WUHU216HW,2013-03-30 04:40:00,
2013-03-29 21:45:00,73.3,13.5,30.08,NNW,338,6.7,6.7,10,0.00,,,0.00,WUHU216HW,2013-03-30 04:45:00,
2013-03-29 21:50:00,73.4,13.7,30.08,NNW,338,5.4,6.7,10,0.00,,,0.00,WUHU216HW,2013-03-30 04:50:00,
2013-03-29 21:55:00,73.4,13.7,30.08,NNE,23,4.5,7.4,10,0.00,,,0.00,WUHU216HW,2013-03-30 04:55:00,
2013-03-29 22:00:00,73.4,13.7,30.08,NNE,23,2.0,7.4,10,0.00,,,0.00,WUHU216HW,2013-03-30 05:00:00,
2013-03-29 22:05:00,73.3,13.5,30.08,North,0,1.1,5.4,10,0.00,,,0.00,WUHU216HW,2013-03-30 05:05:00,
2013-03-29 22:10:00,73.1,13.4,30.08,North,0,3.4,5.4,10,0.00,,,0.00,WUHU216HW,2013-03-30 05:10:00,
2013-03-29 22:15:00,73.1,13.4,30.09,North,0,4.0,5.4,10,0.00,,,0.00,WUHU216HW,2013-03-30 05:15:00,
2013-03-29 22:20:00,73.1,13.4,30.09,NNW,338,0.9,4.3,10,0.00,,,0.00,WUHU216HW,2013-03-30 05:20:00,
2013-03-29 22:25:00,72.7,13.2,30.09,SW,225,0.4,4.0,10,0.00,,,0.00,WUHU216HW,2013-03-30 05:25:00,
2013-03-29 22:30:00,71.8,14.1,30.09,SE,135,0.4,3.1,11,0.00,,,0.00,WUHU216HW,2013-03-30 05:30:00,
2013-03-29 22:35:00,70.9,13.3,30.09,ESE,113,1.8,2.9,11,0.00,,,0.00,WUHU216HW,2013-03-30 05:35:00,
2013-03-29 22:40:00,70.2,12.7,30.09,West,270,2.0,2.9,11,0.00,,,0.00,WUHU216HW,2013-03-30 05:40:00,
2013-03-29 22:45:00,69.7,14.0,30.09,SSE,158,0.7,3.4,12,0.00,,,0.00,WUHU216HW,2013-03-30 05:45:00,
2013-03-29 22:50:00,69.3,13.7,30.09,ENE,68,1.3,3.4,12,0.00,,,0.00,WUHU216HW,2013-03-30 05:50:00,
2013-03-29 22:55:00,69.1,13.5,30.09,NE,45,3.4,3.4,12,0.00,,,0.00,WUHU216HW,2013-03-30 05:55:00,
2013-03-29 23:00:00,68.9,13.4,30.09,ENE,68,2.7,4.0,12,0.00,,,0.00,WUHU216HW,2013-03-30 06:00:00,
2013-03-29 23:05:00,68.8,13.2,30.09,East,90,2.0,4.3,12,0.00,,,0.00,WUHU216HW,2013-03-30 06:05:00,
2013-03-29 23:10:00,68.4,14.6,30.09,ENE,68,4.3,4.9,13,0.00,,,0.00,WUHU216HW,2013-03-30 06:10:00,
2013-03-29 23:15:00,68.0,14.3,30.09,ESE,113,3.1,5.4,13,0.00,,,0.00,WUHU216HW,2013-03-30 06:15:00,
2013-03-29 23:20:00,67.9,14.2,30.09,East,90,2.5,5.4,13,0.00,,,0.00,WUHU216HW,2013-03-30 06:20:00,
2013-03-29 23:25:00,67.5,13.9,30.09,ENE,68,2.0,3.8,13,0.00,,,0.00,WUHU216HW,2013-03-30 06:25:00,
2013-03-29 23:30:00,67.3,13.8,30.09,NE,45,1.1,2.5,13,0.00,,,0.00,WUHU216HW,2013-03-30 06:30:00,
2013-03-29 23:35:00,67.1,15.2,30.09,North,0,0.0,2.0,14,0.00,,,0.00,WUHU216HW,2013-03-30 06:35:00,
2013-03-29 23:40:00,67.0,13.4,30.09,West,270,1.8,1.8,13,0.00,,,0.00,WUHU216HW,2013-03-30 06:40:00,
2013-03-29 23:45:00,67.0,16.7,30.09,SSW,203,1.8,2.0,15,0.00,,,0.00,WUHU216HW,2013-03-30 06:45:00,
2013-03-29 23:50:00,67.0,16.7,30.09,ESE,113,3.4,3.4,15,0.00,,,0.00,WUHU216HW,2013-03-30 06:50:00,
2013-03-29 23:55:00,66.6,16.3,30.09,ESE,113,1.3,3.4,15,0.00,,,0.00,WUHU216HW,2013-03-30 06:55:00,